Time,TemperatureF,DewpointF,PressureIn,WindDirection,WindDirectionDegrees,WindSpeedMPH,WindSpeedGustMPH,Humidity,HourlyPrecipIn,Conditions,Clouds,dailyrainin,SoftwareType,DateUTC
2013-03-02 00:00:00,22.0,2.0,-100.00,NNE,23,15.0,26.0,42,-99.99,,,-99.99,,2013-03-02 07:00:00,
2013-03-02 00:42:00,22.0,2.0,-100.00,NNE,23,15.0,26.0,42,-99.99,,,-99.99,,2013-03-02 07:42:00,
2013-03-02 00:52:00,22.0,2.0,-100.00,NNE,23,15.0,26.0,42,-99.99,,,-99.99,,2013-03-02 07:52:00,
2013-03-02 01:00:00,23.0,3.0,-100.00,North,355,15.0,23.0,42,-99.99,,,-99.99,,2013-03-02 08:00:00,
2013-03-02 01:43:00,23.0,3.0,-100.00,North,355,15.0,23.0,42,-99.99,,,-99.99,,2013-03-02 08:43:00,
2013-03-02 01:52:00,23.0,3.0,-100.00,North,355,15.0,23.0,42,-99.99,,,-99.99,,2013-03-02 08:52:00,
2013-03-02 02:00:00,24.0,3.0,-100.00,North,358,16.0,26.0,40,-99.99,,,-99.99,,2013-03-02 09:00:00,
2013-03-02 02:42:00,24.0,3.0,-100.00,North,358,16.0,26.0,40,-99.99,,,-99.99,,2013-03-02 09:42:00,
2013-03-02 02:52:00,24.0,3.0,-100.00,North,358,16.0,26.0,40,-99.99,,,-99.99,,2013-03-02 09:52:00,
2013-03-02 03:00:00,24.0,3.0,-100.00,North,352,16.0,23.0,39,-99.99,,,-99.99,,2013-03-02 10:00:00,
2013-03-02 03:43:00,24.0,3.0,-100.00,North,352,16.0,23.0,39,-99.99,,,-99.99,,2013-03-02 10:43:00,
2013-03-02 03:52:00,24.0,3.0,-100.00,North,352,16.0,23.0,39,-99.99,,,-99.99,,2013-03-02 10:52:00,
2013-03-02 04:00:00,25.0,2.0,-100.00,North,351,17.0,25.0,38,-99.99,,,-99.99,,2013-03-02 11:00:00,
2013-03-02 04:42:00,25.0,2.0,-100.00,North,351,17.0,25.0,38,-99.99,,,-99.99,,2013-03-02 11:42:00,
2013-03-02 04:52:00,25.0,2.0,-100.00,North,351,17.0,25.0,38,-99.99,,,-99.99,,2013-03-02 11:52:00,
2013-03-02 05:00:00,26.0,1.0,-100.00,North,350,13.0,24.0,34,-99.99,,,-99.99,,2013-03-02 12:00:00,
2013-03-02 05:43:00,26.0,1.0,-100.00,North,350,13.0,24.0,34,-99.99,,,-99.99,,2013-03-02 12:43:00,
2013-03-02 05:53:00,26.0,1.0,-100.00,North,350,13.0,24.0,34,-99.99,,,-99.99,,2013-03-02 12:53:00,
2013-03-02 06:00:00,27.0,1.0,-100.00,NNW,346,11.0,19.0,32,-99.99,,,-99.99,,2013-03-02 13:00:00,
2013-03-02 06:42:00,27.0,1.0,-100.00,NNW,346,11.0,19.0,32,-99.99,,,-99.99,,2013-03-02 13:42:00,
2013-03-02 06:52:00,27.0,1.0,-100.00,NNW,346,11.0,19.0,32,-99.99,,,-99.99,,2013-03-02 13:52:00,
2013-03-02 07:00:00,26.0,1.0,-100.00,WNW,295,10.0,16.0,33,-99.99,,,-99.99,,2013-03-02 14:00:00,
2013-03-02 07:42:00,26.0,1.0,-100.00,WNW,295,10.0,16.0,33,-99.99,,,-99.99,,2013-03-02 14:42:00,
2013-03-02 07:52:00,26.0,1.0,-100.00,WNW,295,10.0,16.0,33,-99.99,,,-99.99,,2013-03-02 14:52:00,
2013-03-02 08:00:00,26.0,2.0,-100.00,WNW,296,12.0,17.0,34,-99.99,,,-99.99,,2013-03-02 15:00:00,
2013-03-02 08:42:00,26.0,2.0,-100.00,WNW,296,12.0,17.0,34,-99.99,,,-99.99,,2013-03-02 15:42:00,
2013-03-02 08:52:00,26.0,2.0,-100.00,WNW,296,12.0,17.0,34,-99.99,,,-99.99,,2013-03-02 15:52:00,
2013-03-02 09:00:00,29.0,2.0,-100.00,NNW,334,8.0,19.0,31,-99.99,,,-99.99,,2013-03-02 16:00:00,
2013-03-02 09:42:00,29.0,2.0,-100.00,NNW,334,8.0,19.0,31,-99.99,,,-99.99,,2013-03-02 16:42:00,
2013-03-02 09:52:00,29.0,2.0,-100.00,NNW,334,8.0,19.0,31,-99.99,,,-99.99,,2013-03-02 16:52:00,
2013-03-02 10:00:00,31.0,3.0,-100.00,WNW,294,7.0,20.0,31,-99.99,,,-99.99,,2013-03-02 17:00:00,
2013-03-02 10:42:00,31.0,3.0,-100.00,WNW,294,7.0,20.0,31,-99.99,,,-99.99,,2013-03-02 17:42:00,
2013-03-02 10:52:00,31.0,3.0,-100.00,WNW,294,7.0,20.0,31,-99.99,,,-99.99,,2013-03-02 17:52:00,
2013-03-02 11:00:00,32.0,5.0,-100.00,NW,316,8.0,18.0,31,-99.99,,,-99.99,,2013-03-02 18:00:00,
2013-03-02 11:42:00,32.0,5.0,-100.00,NW,316,8.0,18.0,31,-99.99,,,-99.99,,2013-03-02 18:42:00,
2013-03-02 11:52:00,32.0,5.0,-100.00,NW,316,8.0,18.0,31,-99.99,,,-99.99,,2013-03-02 18:52:00,
2013-03-02 12:00:00,32.0,6.0,-100.00,NNW,332,12.0,33.0,33,-99.99,,,-99.99,,2013-03-02 19:00:00,
2013-03-02 12:42:00,32.0,6.0,-100.00,NNW,332,12.0,33.0,33,-99.99,,,-99.99,,2013-03-02 19:42:00,
2013-03-02 12:52:00,32.0,6.0,-100.00,NNW,332,12.0,33.0,33,-99.99,,,-99.99,,2013-03-02 19:52:00,
2013-03-02 13:00:00,34.0,6.0,-100.00,West,281,9.0,20.0,30,-99.99,,,-99.99,,2013-03-02 20:00:00,
2013-03-02 13:42:00,34.0,6.0,-100.00,West,281,9.0,20.0,30,-99.99,,,-99.99,,2013-03-02 20:42:00,
2013-03-02 13:53:00,34.0,6.0,-100.00,West,281,9.0,20.0,30,-99.99,,,-99.99,,2013-03-02 20:53:00,
2013-03-02 14:00:00,35.0,7.0,-100.00,SSW,208,7.0,17.0,30,-99.99,,,-99.99,,2013-03-02 21:00:00,
2013-03-02 14:42:00,35.0,7.0,-100.00,SSW,208,7.0,17.0,30,-99.99,,,-99.99,,2013-03-02 21:42:00,
2013-03-02 14:52:00,35.0,7.0,-100.00,SSW,208,7.0,17.0,30,-99.99,,,-99.99,,2013-03-02 21:52:00,
2013-03-02 15:00:00,34.0,8.0,-100.00,SSW,198,11.0,21.0,32,-99.99,,,-99.99,,2013-03-02 22:00:00,
2013-03-02 15:42:00,34.0,8.0,-100.00,SSW,198,11.0,21.0,32,-99.99,,,-99.99,,2013-03-02 22:42:00,
2013-03-02 15:52:00,34.0,8.0,-100.00,SSW,198,11.0,21.0,32,-99.99,,,-99.99,,2013-03-02 22:52:00,
2013-03-02 16:00:00,33.0,8.0,-100.00,SSW,205,12.0,20.0,34,-99.99,,,-99.99,,2013-03-02 23:00:00,
2013-03-02 16:42:00,33.0,8.0,-100.00,SSW,205,12.0,20.0,34,-99.99,,,-99.99,,2013-03-02 23:42:00,
2013-03-02 16:52:00,33.0,8.0,-100.00,SSW,205,12.0,20.0,34,-99.99,,,-99.99,,2013-03-02 23:52:00,
2013-03-02 17:00:00,32.0,10.0,-100.00,SSW,208,13.0,21.0,38,-99.99,,,-99.99,,2013-03-03 00:00:00,
2013-03-02 17:42:00,32.0,10.0,-100.00,SSW,208,13.0,21.0,38,-99.99,,,-99.99,,2013-03-03 00:42:00,
2013-03-02 17:52:00,32.0,10.0,-100.00,SSW,208,13.0,21.0,38,-99.99,,,-99.99,,2013-03-03 00:52:00,
2013-03-02 18:00:00,30.0,12.0,-100.00,SSW,210,10.0,17.0,46,-99.99,,,-99.99,,2013-03-03 01:00:00,
2013-03-02 18:42:00,30.0,12.0,-100.00,SSW,210,10.0,17.0,46,-99.99,,,-99.99,,2013-03-03 01:42:00,
2013-03-02 18:52:00,30.0,12.0,-100.00,SSW,210,10.0,17.0,46,-99.99,,,-99.99,,2013-03-03 01:52:00,
2013-03-02 19:00:00,29.0,12.0,-100.00,SSW,204,11.0,16.0,49,-99.99,,,-99.99,,2013-03-03 02:00:00,
2013-03-02 19:42:00,29.0,12.0,-100.00,SSW,204,11.0,16.0,49,-99.99,,,-99.99,,2013-03-03 02:42:00,
2013-03-02 19:52:00,29.0,12.0,-100.00,SSW,204,11.0,16.0,49,-99.99,,,-99.99,,2013-03-03 02:52:00,
2013-03-02 20:00:00,26.0,16.0,-100.00,SSW,198,13.0,16.0,64,-99.99,,,-99.99,,2013-03-03 03:00:00,
2013-03-02 20:42:00,26.0,16.0,-100.00,SSW,198,13.0,16.0,64,-99.99,,,-99.99,,2013-03-03 03:42:00,
2013-03-02 20:52:00,26.0,16.0,-100.00,SSW,198,13.0,16.0,64,-99.99,,,-99.99,,2013-03-03 03:52:00,
2013-03-02 21:00:00,25.0,17.0,-100.00,SSW,210,12.0,16.0,71,-99.99,,,-99.99,,2013-03-03 04:00:00,
2013-03-02 21:42:00,25.0,17.0,-100.00,SSW,210,12.0,16.0,71,-99.99,,,-99.99,,2013-03-03 04:42:00,
2013-03-02 21:52:00,25.0,17.0,-100.00,SSW,210,12.0,16.0,71,-99.99,,,-99.99,,2013-03-03 04:52:00,
2013-03-02 22:00:00,24.0,16.0,-100.00,SW,219,12.0,20.0,69,-99.99,,,-99.99,,2013-03-03 05:00:00,
2013-03-02 22:42:00,24.0,16.0,-100.00,SW,219,12.0,20.0,69,-99.99,,,-99.99,,2013-03-03 05:42:00,
2013-03-02 22:52:00,24.0,16.0,-100.00,SW,219,12.0,20.0,69,-99.99,,,-99.99,,2013-03-03 05:52:00,
2013-03-02 23:00:00,24.0,16.0,-100.00,SW,223,14.0,19.0,70,-99.99,,,-99.99,,2013-03-03 06:00:00,
2013-03-02 23:42:00,24.0,16.0,-100.00,SW,223,14.0,19.0,70,-99.99,,,-99.99,,2013-03-03 06:42:00,
2013-03-02 23:52:00,24.0,16.0,-100.00,SW,223,14.0,19.0,70,-99.99,,,-99.99,,2013-03-03 06:52:00,